• In Netherlands
  • List of Countries
  • For 7 days
  • Water Temperature
  • Satellite Maps
  • Weather Map
  • Weather Widgets
  • user-avatar
    Login

    Hourly Weather Quito

    Today, 28 June, Wednesday

    Time Temperature Precipitation Wind Pressure Humidity
    00:00 +13°C° 0 mm 1 mps 622 mmHg 57%
    01:00 +12°C° 0 mm 1 mps 622 mmHg 64%
    02:00 +11°C° 0 mm 1 mps 622 mmHg 66%
    03:00 +11°C° 0 mm 1 mps 622 mmHg 68%
    04:00 +11°C° 0 mm 1 mps 622 mmHg 71%
    05:00 +11°C° 0 mm 1 mps 622 mmHg 69%
    06:00 +12°C° 0 mm 1 mps 622 mmHg 66%
    07:00 +12°C° 0 mm 1 mps 623 mmHg 64%
    08:00 +16°C° 0 mm 2 mps 624 mmHg 53%
    09:00 +19°C° 0 mm 2 mps 625 mmHg 42%
    10:00 +22°C° 0 mm 3 mps 626 mmHg 31%
    11:00 +25°C° 0 mm 3 mps 626 mmHg 28%
    12:00 +26°C° 0 mm 3 mps 626 mmHg 24%
    13:00 +27°C° 0 mm 3 mps 626 mmHg 21%
    14:00 +27°C° 0 mm 3 mps 626 mmHg 21%
    15:00 +27°C° 0 mm 3 mps 625 mmHg 20%
    16:00 +27°C° 0 mm 3 mps 624 mmHg 20%
    17:00 +23°C° 0 mm 2 mps 624 mmHg 27%
    18:00 +18°C° 0 mm 2 mps 623 mmHg 33%
    19:00 +15°C° 0 mm 2 mps 622 mmHg 40%
    20:00 +14°C° 0 mm 2 mps 622 mmHg 42%
    21:00 +13°C° 0 mm 1 mps 622 mmHg 45%
    22:00 +13°C° 0 mm 1 mps 622 mmHg 47%
    23:00 +12°C° 0 mm 1 mps 622 mmHg 49%

    Tomorrow, 29 June, Thursday

    Time Temperature Precipitation Wind Pressure Humidity
    00:00 +11°C° 0 mm 1 mps 622 mmHg 52%
    01:00 +11°C° 0 mm 1 mps 622 mmHg 54%
    02:00 +10°C° 0 mm 1 mps 622 mmHg 58%
    03:00 +10°C° 0 mm 1 mps 621 mmHg 62%
    04:00 +9°C° 0 mm 1 mps 621 mmHg 66%
    05:00 +10°C° 0 mm 1 mps 622 mmHg 64%
    06:00 +11°C° 0 mm 1 mps 622 mmHg 61%
    07:00 +11°C° 0 mm 1 mps 623 mmHg 58%
    08:00 +15°C° 0 mm 2 mps 624 mmHg 47%
    09:00 +18°C° 0 mm 3 mps 626 mmHg 36%
    10:00 +22°C° 0 mm 4 mps 627 mmHg 25%
    11:00 +23°C° 0 mm 4 mps 627 mmHg 22%
    12:00 +25°C° 0 mm 4 mps 627 mmHg 19%
    13:00 +26°C° 0 mm 3 mps 626 mmHg 16%
    14:00 +26°C° 0 mm 3 mps 626 mmHg 16%
    15:00 +26°C° 0 mm 3 mps 625 mmHg 16%
    16:00 +26°C° 0 mm 3 mps 625 mmHg 16%
    17:00 +21°C° 0 mm 2 mps 624 mmHg 23%
    18:00 +17°C° 0 mm 2 mps 623 mmHg 29%
    19:00 +14°C° 0 mm 2 mps 622 mmHg 36%
    20:00 +13°C° 0 mm 1 mps 622 mmHg 38%
    21:00 +12°C° 0 mm 1 mps 623 mmHg 41%
    22:00 +11°C° 0 mm 1 mps 623 mmHg 44%
    23:00 +11°C° 0 mm 1 mps 623 mmHg 47%

    Day after tomorrow, 30 June, Friday

    Time Temperature Precipitation Wind Pressure Humidity
    00:00 +11°C° 0 mm 1 mps 623 mmHg 49%
    01:00 +10°C° 0 mm 1 mps 622 mmHg 52%
    02:00 +10°C° 0 mm 1 mps 622 mmHg 54%
    03:00 +9°C° 0 mm 1 mps 622 mmHg 56%
    04:00 +9°C° 0 mm 1 mps 621 mmHg 58%
    05:00 +9°C° 0 mm 1 mps 622 mmHg 58%
    06:00 +10°C° 0 mm 1 mps 622 mmHg 57%
    07:00 +10°C° 0 mm 1 mps 623 mmHg 56%
    08:00 +14°C° 0 mm 2 mps 624 mmHg 46%
    09:00 +18°C° 0 mm 2 mps 626 mmHg 36%
    10:00 +22°C° 0 mm 3 mps 627 mmHg 25%
    11:00 +25°C° 0 mm 3 mps 627 mmHg 22%
    12:00 +26°C° 0 mm 2 mps 627 mmHg 18%
    13:00 +27°C° 0 mm 2 mps 627 mmHg 14%
    14:00 +27°C° 0 mm 2 mps 626 mmHg 15%
    15:00 +27°C° 0 mm 2 mps 625 mmHg 15%
    16:00 +26°C° 0 mm 2 mps 625 mmHg 15%
    17:00 +21°C° 0 mm 2 mps 624 mmHg 24%
    18:00 +18°C° 0 mm 1 mps 623 mmHg 34%
    19:00 +13°C° 0 mm 1 mps 622 mmHg 43%
    20:00 +13°C° 0 mm 1 mps 622 mmHg 41%
    21:00 +13°C° 0 mm 1 mps 623 mmHg 38%
    22:00 +13°C° 0 mm 1 mps 623 mmHg 36%
    23:00 +12°C° 0 mm 1 mps 622 mmHg 40%

    1 July, Saturday

    Time Temperature Precipitation Wind Pressure Humidity
    00:00 +11°C° 0 mm 1 mps 622 mmHg 43%
    01:00 +11°C° 0 mm 1 mps 622 mmHg 47%
    02:00 +10°C° 0 mm 1 mps 621 mmHg 51%
    03:00 +10°C° 0 mm 1 mps 621 mmHg 55%
    04:00 +9°C° 0 mm 1 mps 621 mmHg 58%
    05:00 +10°C° 0 mm 1 mps 622 mmHg 57%
    06:00 +11°C° 0 mm 1 mps 622 mmHg 56%
    07:00 +11°C° 0 mm 1 mps 623 mmHg 54%
    08:00 +15°C° 0 mm 2 mps 624 mmHg 45%
    09:00 +19°C° 0 mm 3 mps 626 mmHg 36%
    10:00 +22°C° 0 mm 3 mps 627 mmHg 27%
    11:00 +25°C° 0 mm 3 mps 627 mmHg 24%
    12:00 +26°C° 0 mm 3 mps 626 mmHg 20%
    13:00 +27°C° 0 mm 2 mps 626 mmHg 17%
    14:00 +27°C° 0 mm 2 mps 625 mmHg 17%
    15:00 +27°C° 0 mm 2 mps 625 mmHg 17%
    16:00 +26°C° 0 mm 2 mps 624 mmHg 17%
    17:00 +23°C° 0 mm 2 mps 624 mmHg 23%
    18:00 +18°C° 0 mm 2 mps 623 mmHg 29%
    19:00 +15°C° 0 mm 2 mps 622 mmHg 34%
    20:00 +14°C° 0 mm 2 mps 622 mmHg 37%
    21:00 +13°C° 0 mm 2 mps 623 mmHg 39%
    22:00 +13°C° 0 mm 2 mps 623 mmHg 41%
    23:00 +12°C° 0 mm 2 mps 622 mmHg 47%

    2 July, Sunday

    Time Temperature Precipitation Wind Pressure Humidity
    00:00 +11°C° 0 mm 1 mps 622 mmHg 52%
    01:00 +10°C° 0 mm 1 mps 621 mmHg 57%
    02:00 +10°C° 0 mm 1 mps 621 mmHg 61%
    03:00 +10°C° 0 mm 1 mps 621 mmHg 65%
    04:00 +9°C° 0 mm 1 mps 621 mmHg 69%
    05:00 +10°C° 0 mm 1 mps 622 mmHg 67%
    06:00 +11°C° 0 mm 1 mps 622 mmHg 65%
    07:00 +11°C° 0 mm 1 mps 623 mmHg 62%
    08:00 +15°C° 0 mm 2 mps 624 mmHg 51%
    09:00 +18°C° 0 mm 3 mps 626 mmHg 40%
    10:00 +22°C° 0 mm 4 mps 627 mmHg 28%
    11:00 +23°C° 0 mm 4 mps 626 mmHg 25%
    12:00 +25°C° 0 mm 3 mps 626 mmHg 22%
    13:00 +27°C° 0 mm 3 mps 626 mmHg 18%
    14:00 +26°C° 0 mm 3 mps 625 mmHg 18%
    15:00 +26°C° 0 mm 3 mps 625 mmHg 18%
    16:00 +26°C° 0 mm 2 mps 624 mmHg 18%
    17:00 +21°C° 0 mm 2 mps 624 mmHg 25%
    18:00 +18°C° 0 mm 2 mps 623 mmHg 32%
    19:00 +15°C° 0 mm 2 mps 622 mmHg 39%
    20:00 +14°C° 0 mm 2 mps 622 mmHg 42%
    21:00 +13°C° 0 mm 2 mps 622 mmHg 46%
    22:00 +12°C° 0 mm 2 mps 622 mmHg 49%
    23:00 +12°C° 0 mm 1 mps 622 mmHg 52%

    3 July, Monday

    Time Temperature Precipitation Wind Pressure Humidity
    00:00 +11°C° 0 mm 1 mps 622 mmHg 55%
    01:00 +11°C° 0 mm 1 mps 621 mmHg 58%
    02:00 +10°C° 0 mm 1 mps 621 mmHg 60%
    03:00 +10°C° 0 mm 1 mps 621 mmHg 61%
    04:00 +9°C° 0 mm 1 mps 621 mmHg 62%
    05:00 +10°C° 0 mm 1 mps 621 mmHg 61%
    06:00 +10°C° 0 mm 1 mps 622 mmHg 59%
    07:00 +11°C° 0 mm 1 mps 623 mmHg 58%
    08:00 +15°C° 0 mm 2 mps 624 mmHg 47%
    09:00 +18°C° 0 mm 2 mps 625 mmHg 36%
    10:00 +22°C° 0 mm 3 mps 626 mmHg 26%
    11:00 +24°C° 0 mm 3 mps 626 mmHg 23%
    12:00 +25°C° 0 mm 3 mps 626 mmHg 20%
    13:00 +27°C° 0 mm 2 mps 625 mmHg 17%
    14:00 +26°C° 0 mm 2 mps 625 mmHg 17%
    15:00 +26°C° 0 mm 2 mps 625 mmHg 17%
    16:00 +26°C° 0 mm 2 mps 624 mmHg 18%
    17:00 +21°C° 0 mm 2 mps 623 mmHg 24%
    18:00 +18°C° 0 mm 2 mps 623 mmHg 30%
    19:00 +15°C° 0 mm 2 mps 622 mmHg 36%
    20:00 +14°C° 0 mm 2 mps 622 mmHg 38%
    21:00 +13°C° 0 mm 2 mps 622 mmHg 40%
    22:00 +13°C° 0 mm 2 mps 622 mmHg 42%
    23:00 +12°C° 0 mm 1 mps 622 mmHg 45%
    Show more